This demonstration page uses our WeatherBlox Daily Observations layout. Learn more.

40.92945, -100.16068

Hourly Observations for November 1, 2019

Temp ( °F °C ) Dew Point ( °F °C ) Humidity (%) Winds ( mph kmh ) Pressure ( in mb ) Visibility ( mi km ) Precip ( " mm )
12:15 am 00:15 Clear 28 -2.2 24 -4.2 86 86 WNW 3 6 30.2 1023 10 16.0934 0 0
12:35 am 00:35 Clear 29 -1.8 25 -3.7 87 87 WNW 5 7 30.2 1023 10 16.0934 0 0
12:55 am 00:55 Clear 29 -1.9 26 -3.6 88 88 W 3 6 30.2 1023 10 16.0934 0 0
1:15 am 01:15 Clear 29 -1.6 25 -3.8 85 85 WNW 6 9 30.19 1022 10 16.0934 0 0
1:35 am 01:35 Clear 29 -1.5 25 -3.7 85 85 W 3 6 30.19 1022 10 16.0934 0 0
1:55 am 01:55 Clear 29 -1.5 25 -3.9 84 84 WNW 6 9 30.19 1022 10 16.0934 0 0
2:15 am 02:15 Clear 30 -1 26 -3.6 83 83 NW 6 9 30.2 1023 10 16.0934 0 0
2:35 am 02:35 Clear 31 -0.6 26 -3.5 81 81 NW 5 7 30.2 1023 10 16.0934 0 0
2:55 am 02:55 Partly Cloudy 31 -0.6 26 -3.5 81 81 W 7 11 30.19 1022 10 16.0934 0 0
3:15 am 03:15 Mostly Cloudy 31 -0.5 26 -3.1 83 83 W 7 11 30.2 1023 10 16.0934 0 0
3:35 am 03:35 Partly Cloudy 30 -0.9 27 -3 86 86 W 8 13 30.22 1023 10 16.0934 0 0
3:55 am 03:55 Partly Cloudy 31 -0.3 27 -3 82 82 WNW 7 11 30.21 1023 10 16.0934 0 0
4:15 am 04:15 Mostly Cloudy 31 -0.5 27 -2.9 84 84 W 7 11 30.21 1023 10 16.0934 0 0
4:35 am 04:35 Mostly Cloudy 31 -0.3 26 -3.3 80 80 W 8 13 30.22 1023 10 16.0934 0 0
4:55 am 04:55 Partly Cloudy 32 -0.2 26 -3.2 80 80 WNW 9 15 30.23 1024 10 16.0934 0 0
5:15 am 05:15 Mostly Cloudy 32 0 26 -3.3 79 79 WNW 8 13 30.23 1024 10 16.0934 0 0
5:35 am 05:35 Cloudy 32 0.2 26 -3.1 79 79 NW 8 13 30.24 1024 10 16.0934 0 0
5:55 am 05:55 Cloudy 33 0.5 26 -3.1 77 77 WNW 8 13 30.24 1024 10 16.0934 0 0
6:15 am 06:15 Cloudy 33 0.5 27 -2.7 79 79 WNW 8 13 30.24 1024 10 16.0934 0 0
6:35 am 06:35 Cloudy 33 0.6 27 -3 77 77 NW 7 11 30.25 1024 10 16.0934 0 0
6:55 am 06:55 Cloudy 33 0.6 26 -3.3 75 75 WNW 7 11 30.26 1025 10 16.0934 0 0
7:15 am 07:15 Cloudy 32 0 26 -3.1 80 80 WNW 6 9 30.27 1025 10 16.0934 0 0
7:35 am 07:35 Cloudy 33 0.6 27 -2.8 78 78 NW 10 17 30.26 1025 10 16.0934 0 0
7:55 am 07:55 Cloudy 34 1 28 -2.3 79 79 WNW 8 13 30.27 1025 10 16.0934 0 0
8:15 am 08:15 Cloudy 34 1.2 29 -1.7 81 81 NW 10 17 30.28 1025 10 16.0934 0 0
8:35 am 08:35 Cloudy 34 1 29 -1.5 84 84 WNW 8 13 30.29 1026 10 16.0934 0 0
8:55 am 08:55 Cloudy 34 1.2 30 -1 85 85 NW 8 13 30.29 1026 10 16.0934 0 0
9:15 am 09:15 Cloudy 35 1.5 31 -0.3 88 88 NW 7 11 30.29 1026 10 16.0934 0 0
9:35 am 09:35 Cloudy 36 2.1 32 0.1 87 87 WNW 10 17 30.3 1026 10 16.0934 0 0
9:55 am 09:55 Cloudy 37 2.5 32 0.1 84 84 NW 12 19 30.31 1027 10 16.0934 0 0
10:15 am 10:15 Cloudy 37 2.7 32 0 83 83 NW 12 19 30.32 1027 10 16.0934 0 0
10:35 am 10:35 Cloudy 38 3.3 32 0.1 80 80 NNW 14 22 30.32 1027 10 16.0934 0 0
10:55 am 10:55 Cloudy 39 4 32 -0.1 75 75 NNW 16 26 30.32 1027 10 16.0934 0 0
11:15 am 11:15 Cloudy 41 5 32 0.2 71 71 NNW 14 22 30.32 1027 10 16.0934 0 0
11:35 am 11:35 Mostly Cloudy 42 5.6 32 0.2 69 69 NNW 17 28 30.31 1027 10 16.0934 0 0
11:55 am 11:55 Mostly Cloudy 43 6.3 33 0.3 66 66 NW 15 24 30.31 1026 10 16.0934 0 0
12:15 pm 12:15 Cloudy 42 5.6 32 0 68 68 NW 17 28 30.31 1027 10 16.0934 0 0
12:35 pm 12:35 Partly Cloudy 44 6.8 32 0.2 63 63 NNW 14 22 30.3 1026 10 16.0934 0 0
12:55 pm 12:55 Sunny 45 7.2 33 0.8 64 64 N 21 33 30.3 1026 10 16.0934 0 0
1:15 pm 13:15 Mostly Cloudy 45 7.3 33 0.4 62 62 NNW 21 33 30.29 1026 10 16.0934 0 0
1:35 pm 13:35 Mostly Cloudy 45 7.1 32 0 61 61 NNW 18 30 30.29 1026 10 16.0934 0 0
1:55 pm 13:55 Partly Cloudy 46 7.8 32 -0.1 58 58 NNW 21 33 30.28 1025 10 16.0934 0 0
2:15 pm 14:15 Partly Cloudy 46 7.6 31 -0.5 57 57 NNW 17 28 30.27 1025 10 16.0934 0 0
2:35 pm 14:35 Mostly Cloudy 46 7.6 31 -0.7 56 56 NNW 15 24 30.27 1025 10 16.0934 0 0
2:55 pm 14:55 Cloudy 46 7.6 29 -1.7 52 52 NNW 14 22 30.27 1025 10 16.0934 0 0
3:15 pm 15:15 Cloudy 47 8.2 29 -1.8 50 50 NNW 21 33 30.27 1025 10 16.0934 0 0
3:35 pm 15:35 Mostly Cloudy 48 8.7 28 -2.1 47 47 NW 15 24 30.26 1025 10 16.0934 0 0
3:55 pm 15:55 Partly Cloudy 46 8 27 -2.9 46 46 NNW 17 28 30.28 1025 10 16.0934 0 0
4:15 pm 16:15 Partly Cloudy 47 8.4 27 -2.7 46 46 NNW 15 24 30.28 1025 10 16.0934 0 0
4:35 pm 16:35 Partly Cloudy 48 8.8 28 -2.4 46 46 NNW 21 33 30.27 1025 10 16.0934 0 0
4:55 pm 16:55 Mostly Cloudy 46 7.5 27 -2.7 49 49 NNW 22 35 30.29 1026 10 16.0934 0 0
5:15 pm 17:15 Cloudy 44 6.4 31 -0.5 62 62 NNW 20 31 30.33 1027 10 16.0934 0 0
5:35 pm 17:35 Cloudy 42 5.8 29 -1.4 60 60 NNW 23 37 30.34 1027 10 16.0934 0 0
5:55 pm 17:55 Cloudy 42 5.5 29 -1.5 61 61 NNW 12 19 30.34 1028 10 16.0934 0 0
6:15 pm 18:15 Cloudy 42 5.3 29 -1.4 62 62 NNW 12 19 30.36 1028 10 16.0934 0 0
6:35 pm 18:35 Partly Cloudy 39 4.1 29 -1.6 67 67 NW 12 19 30.37 1028 10 16.0934 0 0
6:55 pm 18:55 Clear 37 2.7 28 -2.1 71 71 NW 8 13 30.38 1029 10 16.0934 0 0
7:15 pm 19:15 Clear 34 1.2 27 -2.6 76 76 WNW 7 11 30.42 1030 10 16.0934 0 0
7:35 pm 19:35 Clear 33 0.3 27 -2.7 81 81 WNW 8 13 30.44 1031 10 16.0934 0 0
7:55 pm 19:55 Clear 32 0 26 -3.1 80 80 WNW 6 9 30.44 1031 10 16.0934 0 0
8:15 pm 20:15 Clear 30 -1 26 -3.6 83 83 WNW 8 13 30.46 1031 10 16.0934 0 0
8:35 pm 20:35 Clear 30 -1.2 25 -3.8 83 83 NW 7 11 30.47 1032 10 16.0934 0 0
8:55 pm 20:55 Clear 28 -2.1 24 -4.2 86 86 NW 8 13 30.49 1032 10 16.0934 0 0
9:15 pm 21:15 Clear 28 -2.1 24 -4.6 83 83 NW 7 11 30.49 1032 10 16.0934 0 0
9:35 pm 21:35 Clear 27 -2.6 23 -4.9 84 84 WNW 7 11 30.49 1033 10 16.0934 0 0
9:55 pm 21:55 Clear 26 -3.2 23 -5.1 87 87 WNW 7 11 30.5 1033 10 16.0934 0 0
10:15 pm 22:15 Clear 27 -2.8 23 -4.9 86 86 W 8 13 30.5 1033 10 16.0934 0 0
10:35 pm 22:35 Clear 28 -2.5 24 -4.6 86 86 WNW 9 15 30.5 1033 10 16.0934 0 0
10:55 pm 22:55 Clear 28 -2.4 24 -4.5 86 86 WNW 9 15 30.51 1033 10 16.0934 0 0
11:15 pm 23:15 Clear 27 -2.8 24 -4.6 88 88 WNW 9 15 30.52 1033 10 16.0934 0 0
11:35 pm 23:35 Clear 27 -2.7 23 -4.8 86 86 NW 9 15 30.52 1033 10 16.0934 0 0
11:55 pm 23:55 Clear 27 -3 23 -4.8 88 88 WNW 7 11 30.52 1033 10 16.0934 0 0

Powered by AerisWeather